SCP
0 0 0 0 0 0 0 0 0 0 0 0 0 0 0 1 1 1 1 1 1 0 0 0 0 1 1 1 1 1 0 0 0 0 0 0 0 0 0 0 0 0 0
0 0 0 0 0 0 0 0 0 0 0 0 0 0 0 0 0 0 0 0 0 0 1 1 1 1 1 1 1 1 1 1 0 1 0 0 0 0 0 0 -0 0 -0
0 0 0 0 0 0 0 0 0 0 0 0 0 0 0 0 0 0 0 0 0 0 0 0 0 1 1 1 1 1 1 1 0 0 1 0 0 0 0 0 0 0 0
0 0 0 0 0 0 0 0 0 0 0 0 0 0 0 0 0 0 0 0 0 0 0 0 0 0 0 1 1 1 1 1 1 1 0 1 0 0 0 0 0 0 0
0 0 0 0 0 0 0 0 0 0 0 0 0 0 0 0 0 0 0 0 0 0 0 0 0 0 0 0 1 1 1 1 1 1 0 0 0 0 0 0 0 0 0
0 0 0 0 0 0 0 0 0 0 0 0 0 0 0 0 0 0 0 0 0 0 0 0 0 0 0 0 0 0 0 0 0 0 0 0 0 0 0 0 0 0 0
0 0 0 0 0 0 0 0 0 0 0 0 0 0 0 0 0 0 0 0 0 0 0 0 0 0 0 0 0 0 0 0 0 0 0 0 0 0 0 0 0 0 0
0 0 0 0 0 0 0 0 0 0 0 0 0 0 0 0 0 0 0 0 0 0 0 0 0 -0 0 0 0 0 0 0 0 0 0 0 0 0 0 0 0 0 0
0 0 0 0 0 0 0 0 0 0 0 0 0 0 0 0 0 0 0 0 0 0 0 0 0 0 0 0 0 0 0 0 0 0 0 0 0 0 0 0 0 0 0
0 0 0 0 0 0 0 0 0 0 0 0 0 0 0 0 0 0 0 0 0 0 0 0 0 0 0 0 0 0 0 0 0 0 0 0 0 0 0 0 0 0 0
0 0 0 0 0 0 0 0 0 0 0 0 0 0 0 0 0 0 0 0 0 0 0 0 0 0 0 0 0 0 0 0 0 0 0 0 0 0 0 0 0 0 0
0 0 0 0 0 0 0 0 0 0 0 0 0 0 0 0 0 0 0 0 0 0 0 0 0 0 0 0 0 0 0 0 0 0 0 0 0 0 0 0 0 0 0
0 0 0 0 0 0 0 0 0 0 0 0 0 0 0 0 0 0 0 0 0 0 0 0 0 0 0 0 0 0 0 0 0 0 0 0 0 0 0 0 0 0 0
0 0 0 0 0 0 0 0 0 0 0 0 0 0 0 0 0 0 0 0 0 0 0 0 0 0 0 0 0 0 0 0 0 0 0 0 0 0 0 0 0 0 0
0 0 0 0 0 0 0 0 0 0 0 0 0 0 0 0 0 0 0 0 0 0 0 0 0 0 0 0 0 0 0 0 0 0 0 0 0 0 0 0 0 0 0
0 0 0 0 0 0 0 0 0 0 0 0 0 0 0 0 0 0 0 0 0 0 0 0 0 0 0 0 0 0 0 0 0 0 0 0 0 0 0 0 0 0 0
0 0 0 0 0 0 0 0 0 0 0 0 0 0 0 0 0 0 0 0 0 0 0 0 0 0 0 0 0 0 0 0 0 0 0 0 0 0 0 0 0 0 0
0 0 0 0 0 0 0 0 0 0 0 0 0 0 0 0 0 0 0 0 0 0 0 0 0 0 0 0 0 0 0 0 0 0 0 0 0 0 0 0 0 0 0
0 0 0 0 0 0 0 0 0 0 0 0 0 0 0 0 0 0 0 0 0 0 0 0 0 0 0 0 0 0 0 0 0 0 0 0 0 0 0 0 0 0 0
0 0 0 0 0 0 0 0 0 0 0 0 0 0 0 0 0 0 0 0 0 0 0 0 0 0 0 0 0 0 0 0 0 0 0 0 0 0 0 0 0 0 0
0 0 0 0 0 0 0 0 0 0 0 0 0 0 0 0 0 0 0 0 0 0 0 0 0 0 0 0 0 0 0 0 0 0 0 0 -0 -0 0 0 0 0 0
0 0 0 0 0 0 0 0 0 0 0 0 0 0 0 0 0 0 0 0 0 0 0 0 0 0 0 0 0 0 0 0 0 0 0 -0 0 0 0 0 -0 -0 0
0 0 -0 -0 0 0 0 0 0 0 0 0 0 0 0 0 0 0 0 0 0 0 0 0 0 0 0 0 0 0 0 0 0 0 0 0 0 0 0 0 0 0 0
-0 -0 -0 -0 -0 -0 0 0 -0 -0 0 0 0 0 0 0 0 0 0 0 0 0 0 0 0 0 0 0 0 0 0 0 0 0 -0 0 0 0 -0 -0 0 -0 -0
-0 -0 -0 -0 -0 -0 -0 -0 -0 0 0 0 0 0 0 0 0 0 0 0 0 0 0 0 0 0 0 0 0 0 0 0 -0 -0 0 0 -0 0 0 0 0 0 0
-0 -0 -0 -0 -0 -0 -0 -0 0 0 0 0 0 0 0 0 0 0 0 0 0 0 0 0 0 0 0 0 0 0 0 0 -0 -0 0 0 0 0 0 0 0 0 0
Wind_Speed_500mb
35 40 44 42 49 38 32 32 36 36 34 39 41 46 40 44 38 34 36 36 35 38 41 43 44 45 51 52 51 52 53 55 55 52 57 59 55 56 57 53 52 57 64
39 36 37 37 46 46 42 41 42 41 39 44 47 47 47 46 42 41 36 32 32 33 37 42 44 47 51 53 57 57 59 59 54 53 57 57 50 57 56 59 60 46 48
35 42 39 42 51 53 51 48 47 45 47 50 57 58 51 44 32 19 16 19 22 27 33 37 42 47 50 50 46 45 42 47 53 55 48 30 45 51 65 65 82 80 77
25 34 37 42 51 53 59 54 53 57 60 62 62 60 52 33 20 13 15 22 30 38 43 40 35 32 32 35 42 49 49 44 45 49 59 66 66 50 54 72 64 66 81
23 25 33 44 49 55 66 66 65 64 60 52 41 34 25 17 11 10 18 29 35 34 35 40 42 41 38 36 36 37 41 45 46 48 53 62 67 67 67 56 74 71 75
28 32 34 38 48 63 70 70 66 62 53 44 34 23 15 8 11 16 23 28 26 25 27 31 36 41 38 33 29 32 33 36 38 46 52 58 55 57 62 69 76 81 73
23 28 34 36 38 60 68 64 56 47 39 32 23 16 14 14 19 22 22 21 23 20 21 23 28 32 32 31 31 33 33 31 33 42 49 54 60 64 73 77 77 71 76
12 16 16 12 25 52 54 47 39 32 28 24 18 17 22 25 24 24 24 26 23 23 23 25 27 28 22 26 28 30 32 33 34 33 36 45 53 50 51 55 65 58 65
12 14 22 27 37 42 38 36 37 31 24 22 22 27 32 31 32 31 31 35 33 27 31 31 32 32 31 28 24 23 29 34 36 37 40 37 36 42 51 55 63 70 54
14 10 9 31 41 40 37 31 28 27 27 30 32 35 37 38 37 38 40 42 42 41 42 43 44 42 40 36 35 32 29 31 35 41 44 44 44 41 40 49 66 70 76
37 13 6 2 15 26 34 36 38 38 39 42 47 52 50 46 45 49 50 51 51 51 51 52 55 56 57 50 49 45 38 39 43 43 47 49 48 48 50 48 49 60 63
40 31 14 14 16 22 33 41 46 53 59 62 63 61 59 60 62 61 60 62 64 65 65 66 69 70 69 66 65 58 52 47 44 44 47 52 52 51 51 49 47 51 50
38 28 25 17 11 11 19 24 28 28 29 33 42 49 52 58 63 65 68 71 76 77 77 80 82 82 80 76 73 70 65 60 52 49 49 50 58 61 62 65 52 50 50
12 7 2 4 2 2 4 8 12 18 23 27 31 34 37 40 42 45 50 55 61 64 76 80 82 86 85 82 76 76 76 69 62 61 53 50 57 65 67 68 66 54 54
17 17 13 11 12 13 18 24 30 37 43 48 51 53 57 60 63 65 68 72 75 78 78 79 79 75 78 84 86 83 83 79 72 70 61 56 61 69 70 69 73 68 63
15 20 22 19 22 30 37 44 48 51 55 57 61 63 66 69 71 74 76 78 81 82 83 85 86 88 92 93 88 89 88 84 77 74 66 66 72 80 72 73 75 82 77
24 29 27 23 37 46 51 55 56 56 58 62 67 72 77 85 90 93 94 95 95 93 93 94 97 100 94 90 89 85 88 87 80 79 72 80 84 85 79 77 78 83 89
35 33 36 47 50 51 51 53 56 62 69 78 86 91 94 96 95 91 86 79 76 77 79 80 81 80 82 93 87 75 80 81 78 78 86 92 88 93 86 84 84 86 89
34 41 52 57 58 56 55 62 70 79 89 96 98 97 92 88 82 78 77 75 72 69 69 65 66 74 75 68 71 70 73 78 83 87 90 96 93 92 79 81 86 95 104
45 55 56 56 57 59 64 78 89 96 99 96 94 88 80 76 75 76 75 71 66 67 61 63 63 65 66 68 73 77 82 90 95 104 101 77 75 76 71 75 102 112 109
52 52 55 58 64 72 83 92 95 97 89 85 80 76 74 75 75 71 65 63 62 58 59 61 59 57 60 60 65 59 60 64 64 58 64 63 60 67 73 64 68 74 90
53 55 62 74 84 88 89 91 91 84 77 76 76 75 73 69 65 61 60 57 55 57 58 60 60 61 51 51 56 51 55 48 49 56 54 54 55 48 37 36 36 51 90
60 68 80 91 93 92 85 85 82 75 75 75 75 72 66 60 57 55 55 53 51 51 55 51 50 42 40 41 33 38 41 45 48 52 57 55 35 20 26 29 42 49 73
73 82 89 94 97 88 79 74 74 72 70 69 66 61 59 59 53 49 47 48 49 52 52 44 46 43 37 30 22 26 31 37 42 44 45 38 25 29 29 33 49 59 62
83 84 87 87 86 79 75 71 66 60 59 60 60 59 57 56 56 53 50 49 48 48 46 43 39 40 27 19 16 25 29 27 32 32 36 26 24 24 39 41 53 59 61
84 83 78 77 76 73 71 63 54 51 52 56 56 53 55 57 56 52 49 47 44 40 43 45 46 40 23 18 16 14 15 25 26 30 43 18 21 38 47 56 54 54 53
Wind_Direction_500mb
260 259 264 244 232 229 232 228 204 207 216 215 212 219 224 226 241 258 266 266 273 277 278 278 276 274 273 280 284 285 285 284 283 285 285 285 285 283 281 281 285 287 285
259 258 264 238 227 232 238 237 225 217 218 216 215 218 225 228 244 253 259 269 277 280 281 282 282 280 277 275 274 275 278 279 280 275 277 280 277 278 284 284 285 275 300
277 274 266 240 234 232 235 236 229 220 210 209 214 218 222 226 226 235 266 282 293 298 298 292 286 280 277 277 277 280 282 280 277 271 264 260 257 279 279 275 263 268 273
282 276 273 266 257 242 231 227 224 214 212 212 215 220 225 216 212 228 275 298 307 308 307 305 299 295 287 279 271 268 270 273 274 272 268 267 273 268 279 281 275 269 265
301 291 266 257 256 242 227 218 212 209 207 206 207 208 201 199 227 287 313 320 314 309 307 307 310 309 299 288 274 271 267 261 260 259 262 267 270 269 265 262 269 273 274
295 290 288 270 243 230 216 206 202 197 196 196 197 198 210 243 298 309 321 323 323 328 326 323 319 315 310 297 288 281 275 269 267 260 257 258 261 265 262 252 256 273 267
287 283 276 266 240 219 200 191 190 190 189 194 198 220 253 277 294 307 311 313 314 320 329 328 330 318 308 306 298 291 286 277 275 270 271 272 267 262 265 263 265 262 272
325 315 297 263 223 189 181 179 184 194 206 215 227 254 269 283 290 297 293 293 303 304 306 311 323 327 319 314 308 303 297 290 280 277 276 279 274 272 265 263 257 261 262
80 128 130 141 158 167 177 193 200 203 221 242 254 267 277 279 284 286 287 292 287 288 294 299 298 309 308 304 316 316 307 302 298 293 289 281 279 275 272 269 261 259 249
18 4 164 168 178 188 194 201 215 232 253 264 269 276 278 274 272 281 281 282 283 279 289 288 286 282 283 285 294 300 305 310 308 298 293 289 287 281 274 266 264 259 261
1 1 44 263 231 223 223 227 233 241 248 259 259 257 258 262 271 276 276 273 277 280 284 286 280 279 277 276 277 286 286 291 300 303 296 294 287 284 277 276 261 257 259
339 339 295 283 246 242 244 242 246 250 254 258 260 262 263 262 263 264 261 262 264 270 278 280 279 273 274 274 273 273 282 278 282 291 297 292 288 281 278 277 270 260 257
322 314 306 295 271 258 250 250 251 255 258 262 265 266 266 265 266 266 264 265 266 268 271 272 269 269 272 274 271 271 274 276 273 276 283 285 282 284 276 271 263 262 261
28 35 52 68 62 341 308 278 281 290 287 285 286 284 280 279 277 275 272 272 273 274 273 273 274 271 267 266 265 267 269 271 267 271 269 273 282 281 278 270 266 258 254
41 24 13 356 344 327 313 310 306 303 299 296 293 290 287 284 282 281 279 276 274 273 272 271 270 269 268 266 265 264 266 270 266 269 267 272 281 288 277 269 264 258 255
4 349 334 320 318 317 315 312 308 305 302 299 296 295 294 292 290 287 285 282 281 280 279 277 274 271 269 268 268 266 262 261 260 264 265 272 279 289 275 268 262 255 257
337 331 327 305 314 315 313 311 309 307 305 303 301 300 300 298 296 296 295 292 289 286 281 276 270 266 266 266 266 264 260 254 251 257 266 271 279 292 281 271 270 258 252
331 326 319 316 314 311 311 307 305 304 304 303 303 304 303 301 301 298 295 293 290 287 284 282 280 279 272 262 260 265 251 248 253 260 267 272 280 286 279 277 273 267 261
322 317 316 313 310 309 308 305 305 306 306 306 307 304 303 300 299 296 296 295 293 290 287 283 280 273 273 272 263 257 253 253 261 266 269 272 278 279 276 272 268 265 259
314 314 313 309 306 307 307 306 306 306 306 308 304 302 300 297 297 298 297 295 291 289 287 285 282 276 272 271 264 256 258 267 270 272 274 270 268 270 276 265 267 258 249
315 316 312 308 308 308 308 306 307 305 307 304 302 301 300 298 298 297 294 293 289 285 286 288 286 278 269 270 255 258 264 266 267 266 271 270 276 280 269 275 257 265 220
314 313 311 310 311 312 312 310 307 310 307 306 303 300 300 300 300 296 293 292 289 287 285 287 283 278 272 275 265 256 257 256 261 263 267 273 286 270 288 240 220 159 161
311 313 314 312 312 313 315 312 312 312 308 305 304 303 303 300 300 296 293 291 288 286 288 284 282 286 280 281 274 265 245 243 254 263 265 275 274 241 118 94 127 121 139
313 314 313 312 312 315 315 313 313 312 307 304 303 303 303 304 303 298 292 288 288 288 286 280 272 271 281 284 272 246 242 247 254 254 268 271 269 244 208 162 157 158 149
312 313 314 313 313 316 316 317 315 311 307 305 305 307 310 311 309 300 294 291 290 285 274 266 260 266 290 282 258 269 253 241 243 258 252 281 248 225 169 168 168 162 157
314 315 315 315 316 317 316 318 319 317 312 309 311 313 313 312 308 302 303 299 291 282 275 261 251 249 266 257 276 275 271 230 236 249 226 262 222 191 168 161 167 166 157
Wind_Speed_850mb
35 40 44 42 49 38 32 32 36 36 34 39 41 46 40 44 38 34 36 36 35 38 41 43 44 45 51 52 51 52 53 55 55 52 57 59 55 56 57 53 52 57 64
39 36 37 37 46 46 42 41 42 41 39 44 47 47 47 46 42 41 36 32 32 33 37 42 44 47 51 53 57 57 59 59 54 53 57 57 50 57 56 59 60 46 48
35 42 39 42 51 53 51 48 47 45 47 50 57 58 51 44 32 19 16 19 22 27 33 37 42 47 50 50 46 45 42 47 53 55 48 30 45 51 65 65 82 80 77
25 34 37 42 51 53 59 54 53 57 60 62 62 60 52 33 20 13 15 22 30 38 43 40 35 32 32 35 42 49 49 44 45 49 59 66 66 50 54 72 64 66 81
23 25 33 44 49 55 66 66 65 64 60 52 41 34 25 17 11 10 18 29 35 34 35 40 42 41 38 36 36 37 41 45 46 48 53 62 67 67 67 56 74 71 75
28 32 34 38 48 63 70 70 66 62 53 44 34 23 15 8 11 16 23 28 26 25 27 31 36 41 38 33 29 32 33 36 38 46 52 58 55 57 62 69 76 81 73
23 28 34 36 38 60 68 64 56 47 39 32 23 16 14 14 19 22 22 21 23 20 21 23 28 32 32 31 31 33 33 31 33 42 49 54 60 64 73 77 77 71 76
12 16 16 12 25 52 54 47 39 32 28 24 18 17 22 25 24 24 24 26 23 23 23 25 27 28 22 26 28 30 32 33 34 33 36 45 53 50 51 55 65 58 65
12 14 22 27 37 42 38 36 37 31 24 22 22 27 32 31 32 31 31 35 33 27 31 31 32 32 31 28 24 23 29 34 36 37 40 37 36 42 51 55 63 70 54
14 10 9 31 41 40 37 31 28 27 27 30 32 35 37 38 37 38 40 42 42 41 42 43 44 42 40 36 35 32 29 31 35 41 44 44 44 41 40 49 66 70 76
37 13 6 2 15 26 34 36 38 38 39 42 47 52 50 46 45 49 50 51 51 51 51 52 55 56 57 50 49 45 38 39 43 43 47 49 48 48 50 48 49 60 63
40 31 14 14 16 22 33 41 46 53 59 62 63 61 59 60 62 61 60 62 64 65 65 66 69 70 69 66 65 58 52 47 44 44 47 52 52 51 51 49 47 51 50
38 28 25 17 11 11 19 24 28 28 29 33 42 49 52 58 63 65 68 71 76 77 77 80 82 82 80 76 73 70 65 60 52 49 49 50 58 61 62 65 52 50 50
12 7 2 4 2 2 4 8 12 18 23 27 31 34 37 40 42 45 50 55 61 64 76 80 82 86 85 82 76 76 76 69 62 61 53 50 57 65 67 68 66 54 54
17 17 13 11 12 13 18 24 30 37 43 48 51 53 57 60 63 65 68 72 75 78 78 79 79 75 78 84 86 83 83 79 72 70 61 56 61 69 70 69 73 68 63
15 20 22 19 22 30 37 44 48 51 55 57 61 63 66 69 71 74 76 78 81 82 83 85 86 88 92 93 88 89 88 84 77 74 66 66 72 80 72 73 75 82 77
24 29 27 23 37 46 51 55 56 56 58 62 67 72 77 85 90 93 94 95 95 93 93 94 97 100 94 90 89 85 88 87 80 79 72 80 84 85 79 77 78 83 89
35 33 36 47 50 51 51 53 56 62 69 78 86 91 94 96 95 91 86 79 76 77 79 80 81 80 82 93 87 75 80 81 78 78 86 92 88 93 86 84 84 86 89
34 41 52 57 58 56 55 62 70 79 89 96 98 97 92 88 82 78 77 75 72 69 69 65 66 74 75 68 71 70 73 78 83 87 90 96 93 92 79 81 86 95 104
45 55 56 56 57 59 64 78 89 96 99 96 94 88 80 76 75 76 75 71 66 67 61 63 63 65 66 68 73 77 82 90 95 104 101 77 75 76 71 75 102 112 109
52 52 55 58 64 72 83 92 95 97 89 85 80 76 74 75 75 71 65 63 62 58 59 61 59 57 60 60 65 59 60 64 64 58 64 63 60 67 73 64 68 74 90
53 55 62 74 84 88 89 91 91 84 77 76 76 75 73 69 65 61 60 57 55 57 58 60 60 61 51 51 56 51 55 48 49 56 54 54 55 48 37 36 36 51 90
60 68 80 91 93 92 85 85 82 75 75 75 75 72 66 60 57 55 55 53 51 51 55 51 50 42 40 41 33 38 41 45 48 52 57 55 35 20 26 29 42 49 73
73 82 89 94 97 88 79 74 74 72 70 69 66 61 59 59 53 49 47 48 49 52 52 44 46 43 37 30 22 26 31 37 42 44 45 38 25 29 29 33 49 59 62
83 84 87 87 86 79 75 71 66 60 59 60 60 59 57 56 56 53 50 49 48 48 46 43 39 40 27 19 16 25 29 27 32 32 36 26 24 24 39 41 53 59 61
84 83 78 77 76 73 71 63 54 51 52 56 56 53 55 57 56 52 49 47 44 40 43 45 46 40 23 18 16 14 15 25 26 30 43 18 21 38 47 56 54 54 53
Wind_Direction_850mb
260 259 264 244 232 229 232 228 204 207 216 215 212 219 224 226 241 258 266 266 273 277 278 278 276 274 273 280 284 285 285 284 283 285 285 285 285 283 281 281 285 287 285
259 258 264 238 227 232 238 237 225 217 218 216 215 218 225 228 244 253 259 269 277 280 281 282 282 280 277 275 274 275 278 279 280 275 277 280 277 278 284 284 285 275 300
277 274 266 240 234 232 235 236 229 220 210 209 214 218 222 226 226 235 266 282 293 298 298 292 286 280 277 277 277 280 282 280 277 271 264 260 257 279 279 275 263 268 273
282 276 273 266 257 242 231 227 224 214 212 212 215 220 225 216 212 228 275 298 307 308 307 305 299 295 287 279 271 268 270 273 274 272 268 267 273 268 279 281 275 269 265
301 291 266 257 256 242 227 218 212 209 207 206 207 208 201 199 227 287 313 320 314 309 307 307 310 309 299 288 274 271 267 261 260 259 262 267 270 269 265 262 269 273 274
295 290 288 270 243 230 216 206 202 197 196 196 197 198 210 243 298 309 321 323 323 328 326 323 319 315 310 297 288 281 275 269 267 260 257 258 261 265 262 252 256 273 267
287 283 276 266 240 219 200 191 190 190 189 194 198 220 253 277 294 307 311 313 314 320 329 328 330 318 308 306 298 291 286 277 275 270 271 272 267 262 265 263 265 262 272
325 315 297 263 223 189 181 179 184 194 206 215 227 254 269 283 290 297 293 293 303 304 306 311 323 327 319 314 308 303 297 290 280 277 276 279 274 272 265 263 257 261 262
80 128 130 141 158 167 177 193 200 203 221 242 254 267 277 279 284 286 287 292 287 288 294 299 298 309 308 304 316 316 307 302 298 293 289 281 279 275 272 269 261 259 249
18 4 164 168 178 188 194 201 215 232 253 264 269 276 278 274 272 281 281 282 283 279 289 288 286 282 283 285 294 300 305 310 308 298 293 289 287 281 274 266 264 259 261
1 1 44 263 231 223 223 227 233 241 248 259 259 257 258 262 271 276 276 273 277 280 284 286 280 279 277 276 277 286 286 291 300 303 296 294 287 284 277 276 261 257 259
339 339 295 283 246 242 244 242 246 250 254 258 260 262 263 262 263 264 261 262 264 270 278 280 279 273 274 274 273 273 282 278 282 291 297 292 288 281 278 277 270 260 257
322 314 306 295 271 258 250 250 251 255 258 262 265 266 266 265 266 266 264 265 266 268 271 272 269 269 272 274 271 271 274 276 273 276 283 285 282 284 276 271 263 262 261
28 35 52 68 62 341 308 278 281 290 287 285 286 284 280 279 277 275 272 272 273 274 273 273 274 271 267 266 265 267 269 271 267 271 269 273 282 281 278 270 266 258 254
41 24 13 356 344 327 313 310 306 303 299 296 293 290 287 284 282 281 279 276 274 273 272 271 270 269 268 266 265 264 266 270 266 269 267 272 281 288 277 269 264 258 255
4 349 334 320 318 317 315 312 308 305 302 299 296 295 294 292 290 287 285 282 281 280 279 277 274 271 269 268 268 266 262 261 260 264 265 272 279 289 275 268 262 255 257
337 331 327 305 314 315 313 311 309 307 305 303 301 300 300 298 296 296 295 292 289 286 281 276 270 266 266 266 266 264 260 254 251 257 266 271 279 292 281 271 270 258 252
331 326 319 316 314 311 311 307 305 304 304 303 303 304 303 301 301 298 295 293 290 287 284 282 280 279 272 262 260 265 251 248 253 260 267 272 280 286 279 277 273 267 261
322 317 316 313 310 309 308 305 305 306 306 306 307 304 303 300 299 296 296 295 293 290 287 283 280 273 273 272 263 257 253 253 261 266 269 272 278 279 276 272 268 265 259
314 314 313 309 306 307 307 306 306 306 306 308 304 302 300 297 297 298 297 295 291 289 287 285 282 276 272 271 264 256 258 267 270 272 274 270 268 270 276 265 267 258 249
315 316 312 308 308 308 308 306 307 305 307 304 302 301 300 298 298 297 294 293 289 285 286 288 286 278 269 270 255 258 264 266 267 266 271 270 276 280 269 275 257 265 220
314 313 311 310 311 312 312 310 307 310 307 306 303 300 300 300 300 296 293 292 289 287 285 287 283 278 272 275 265 256 257 256 261 263 267 273 286 270 288 240 220 159 161
311 313 314 312 312 313 315 312 312 312 308 305 304 303 303 300 300 296 293 291 288 286 288 284 282 286 280 281 274 265 245 243 254 263 265 275 274 241 118 94 127 121 139
313 314 313 312 312 315 315 313 313 312 307 304 303 303 303 304 303 298 292 288 288 288 286 280 272 271 281 284 272 246 242 247 254 254 268 271 269 244 208 162 157 158 149
312 313 314 313 313 316 316 317 315 311 307 305 305 307 310 311 309 300 294 291 290 285 274 266 260 266 290 282 258 269 253 241 243 258 252 281 248 225 169 168 168 162 157
314 315 315 315 316 317 316 318 319 317 312 309 311 313 313 312 308 302 303 299 291 282 275 261 251 249 266 257 276 275 271 230 236 249 226 262 222 191 168 161 167 166 157